DECAYED

STARLINK-1693, 46543 (Decayed)

Orbit data source: Space-Track

STARLINK-1693, 46543 was a payload satellite owned by SpaceX/Seattle (US) in LEO that was launched on Tue, 06 Oct 2020 UTC via an FALCON 9 launch vehicle from the Air Force Eastern Test Range (AFETR). Payload-class satellites include a variety of spacecraft equipped with specific instruments for various scientific and technological missions. These include communications satellites like Starlink; space stations such as the ISS; scientific satellites like the Hubble; Earth observation satellites from companies like Planet Labs, Umbra, and HawkEye 360; GPS; miniature CubeSats for education and research; and military/defense satellites.

Not visible in the next 10 days
Identifier
46543, 2020-070M
Orbit
Decayed
Country
Flag of USUS
Related business
Manufacturer
SpaceX/Seattle
Mission
Decayed Commercial Communications
Bus & Motor
STARLINK, Unknown motor
Mass
260 kg wet, ~248 kg dry
Launch date (UTC)
2020-10-06 (5 years ago)
Launch vehicle
FALCON 9
Launch site
Air Force Eastern Test Range (AFETR)
Object type
Payload
Rocket body
Debris
Shape & HBR
Box + 1 Pan, 10.1 m
Radar Cross Section
13.562 m², Large (>1 m²)

Expand to show TLE details & history
Last TLE update: 7 months ago

TLE from 7 months ago
0 STARLINK-1693
1 46543U 20070M   25228.32191575  .15503843  12579-4  40746-3 0  9994
2 46543  53.0175 288.5036 0006112 309.3762 100.5231 16.45417673269831
Epoch: 2025-08-16T07:43Z
TLE epoch observation values (Epoch: 2025-08-16T07:43:33.520Z)
Latitude
37.83718°
Longitude
-116.78485°
Altitude
155.27 km
Speed
7.818 km/s
True Right ascension
21h 36m 15s
True Declination
37° 39' 19"
Sunlit
Object was in full shadow at epoch
Visualization orbit readout
Latitude
Unknown
Longitude
Unknown
Altitude
Unknown
Speed
Unknown
Apparent Right ascension
Unknown
Apparent Declination
Unknown
Sunlit
N/A
Visualization observer readout
Local Sidereal Time
21:55:14
Azimuth
Unknown
Elevation
Unknown
Doppler factor
Unknown
Orbital elements
Apogee altitude
155.714 km
Perigee altitude
147.732 km
Semi-major axis
6,529.86 km
Eccentricity
0.00061
Inclination
53.0175°
RAAN
288.5036°
Arg. of periapsis
309.3762°
True anomaly
100.59195°
Mean anomaly
100.5231°
Eccentric anomaly
100.55753°
Mean motion
4.11327 °/min
Orbital period
87.52 mins
BSTAR
0.00040746
Loading maneuver chart data...
Computing Atmospheric mass density...
Loading historical data...
Loading historical data...
Loading historical data...
Loading historical data...
Loading historical data...
Loading historical data...
Loading historical data...

Documentation

Showing up to 5 results
|